TimeCDT,TemperatureF,Dew PointF,Humidity,Sea Level PressureIn,VisibilityMPH,Wind Direction,Wind SpeedMPH,Gust SpeedMPH,PrecipitationIn,Events,Conditions,WindDirDegrees,DateUTC
12:58 AM,73.9,66.4,77,29.96,10.0,SE,10.4,-,N/A,,Clear,140,2013-07-28 05:58:00
1:58 AM,70.3,66.6,88,29.96,10.0,SE,8.1,-,N/A,,Clear,130,2013-07-28 06:58:00
2:58 AM,68.9,67.5,95,29.94,10.0,SSE,8.1,-,N/A,,Clear,150,2013-07-28 07:58:00
3:58 AM,68.2,68.2,100,29.93,10.0,SE,5.8,-,N/A,,Clear,140,2013-07-28 08:58:00
4:58 AM,67.5,67.5,100,29.92,10.0,SE,5.8,-,N/A,,Clear,130,2013-07-28 09:58:00
5:58 AM,66.0,66.0,100,29.93,10.0,East,4.6,-,N/A,,Clear,90,2013-07-28 10:58:00
6:58 AM,66.7,66.7,100,29.93,10.0,SE,6.9,-,N/A,,Clear,130,2013-07-28 11:58:00
7:58 AM,68.0,68.0,100,29.95,10.0,SE,8.1,-,N/A,,Clear,140,2013-07-28 12:58:00
8:58 AM,74.7,67.6,79,29.96,10.0,South,11.5,-,N/A,,Clear,170,2013-07-28 13:58:00
9:58 AM,79.3,65.5,62,29.96,10.0,SSE,16.1,-,N/A,,Clear,160,2013-07-28 14:58:00
10:58 AM,81.7,65.8,58,29.95,10.0,SSE,13.8,-,N/A,,Clear,160,2013-07-28 15:58:00
11:58 AM,84.0,64.4,52,29.94,10.0,SSE,16.1,-,N/A,,Clear,160,2013-07-28 16:58:00
12:58 PM,86.2,62.4,45,29.93,10.0,South,15.0,-,N/A,,Clear,170,2013-07-28 17:58:00
1:01 PM,86.0,62.6,45,29.97,10.0,SE,15.0,20.7,N/A,,Clear,130,2013-07-28 18:01:00
1:18 PM,86.0,60.8,43,29.97,10.0,SE,16.1,23.0,N/A,,Clear,130,2013-07-28 18:18:00
1:28 PM,86.0,60.8,43,29.96,10.0,South,12.7,19.6,N/A,,Clear,170,2013-07-28 18:28:00
1:52 PM,87.8,59.0,38,29.96,10.0,South,12.7,-,N/A,,Clear,180,2013-07-28 18:52:00
1:58 PM,87.4,58.8,38,29.92,10.0,SSE,12.7,-,N/A,,Clear,160,2013-07-28 18:58:00
2:58 PM,89.2,56.1,32,29.88,10.0,SSE,16.1,21.9,N/A,,Clear,150,2013-07-28 19:58:00
3:02 PM,89.6,59.0,36,29.93,10.0,South,15.0,21.9,N/A,,Clear,180,2013-07-28 20:02:00
3:58 PM,90.3,56.5,32,29.87,10.0,SE,15.0,25.3,N/A,,Clear,130,2013-07-28 20:58:00
4:58 PM,90.7,56.3,31,29.83,10.0,South,18.4,21.9,N/A,,Clear,170,2013-07-28 21:58:00
5:40 PM,89.6,59.0,36,29.87,10.0,South,18.4,-,N/A,,Clear,180,2013-07-28 22:40:00
5:58 PM,90.1,59.5,36,29.83,10.0,SSE,16.1,23.0,N/A,,Clear,160,2013-07-28 22:58:00
6:01 PM,89.6,59.0,36,29.87,10.0,SE,16.1,-,N/A,,Clear,130,2013-07-28 23:01:00
6:58 PM,89.1,60.4,38,29.84,10.0,South,17.3,-,N/A,,Clear,170,2013-07-28 23:58:00
7:58 PM,86.5,59.7,40,29.86,10.0,SSE,12.7,-,N/A,,Clear,160,2013-07-29 00:58:00
8:58 PM,82.4,61.5,49,29.87,10.0,ESE,11.5,-,N/A,,Clear,120,2013-07-29 01:58:00
9:58 PM,81.1,65.3,58,29.88,10.0,ESE,12.7,-,N/A,,Clear,110,2013-07-29 02:58:00
10:58 PM,80.2,65.8,61,29.89,10.0,ESE,13.8,-,N/A,,Clear,110,2013-07-29 03:58:00
11:58 PM,79.0,66.2,65,29.89,10.0,ESE,12.7,-,N/A,,Clear,120,2013-07-29 04:58:00